This demonstration page uses our WeatherBlox Daily Observations layout. Learn more.

Left ArrowRight Arrow

Hourly Observations for August 11, 2021

Temp ( °F °C ) Dew Point ( °F °C ) Humidity (%) Winds ( mph kmh ) Pressure ( in mb ) Visibility ( mi km ) Precip ( " mm )
12:54 am 00:54 Clear 79 26.1 74 23.3 85 85 S 10 17 29.75 1008 10 16 0.00 0.00
1:54 am 01:54 Clear 79 26.1 73 22.8 82 82 S 10 17 29.73 1007 10 16 0.00 0.00
2:54 am 02:54 Clear 75 23.9 71 21.7 88 88 S 9 15 29.72 1006 10 16 0.00 0.00
3:54 am 03:54 Clear 80 26.7 70 21.1 71 71 SSW 9 15 29.72 1006 10 16 0.00 0.00
4:54 am 04:54 Clear 79 26.1 70 21.1 74 74 SW 12 19 29.72 1007 10 16 0.00 0.00
5:54 am 05:54 Clear 77 25 70 21.1 79 79 SSW 9 15 29.72 1006 10 16 0.00 0.00
6:54 am 06:54 Sunny 76 24.4 70 21.1 82 82 S 9 15 29.72 1006 10 16 0.00 0.00
7:54 am 07:54 Sunny 78 25.6 70 21.1 76 76 SSW 6 9 29.74 1007 10 16 0.00 0.00
8:54 am 08:54 Sunny 82 27.8 70 21.1 67 67 SW 10 17 29.75 1007 10 16 0.00 0.00
9:54 am 09:54 Sunny 86 30 70 21.1 59 59 WSW 16 26 29.75 1007 10 16 0.00 0.00
10:54 am 10:54 Sunny 86 30 70 21.1 59 59 W 13 20 29.76 1008 10 16 0.00 0.00
11:54 am 11:54 Sunny 88 31.1 70 21.1 55 55 WNW 12 19 29.79 1009 10 16 0.00 0.00
12:54 pm 12:54 Sunny 89 31.7 71 21.7 55 55 NNW 10 17 29.80 1009 10 16 0.00 0.00
1:54 pm 13:54 Sunny 90 32.2 69 20.6 50 50 N 14 22 29.80 1009 10 16 0.00 0.00
2:54 pm 14:54 Sunny 90 32.2 68 20 48 48 N 13 20 29.81 1010 10 16 0.00 0.00
3:54 pm 15:54 Sunny 91 32.8 68 20 47 47 NE 12 19 29.81 1010 10 16 0.00 0.00
4:54 pm 16:54 Sunny 90 32.2 65 18.3 44 44 NNE 10 17 29.81 1009 10 16 0.00 0.00
5:54 pm 17:54 Sunny 89 31.7 66 18.9 47 47 N 8 13 29.80 1009 10 16 0.00 0.00
6:54 pm 18:54 Sunny 86 30 69 20.6 57 57 N 8 13 29.80 1009 10 16 0.00 0.00
7:54 pm 19:54 Sunny 81 27.2 69 20.6 67 67 N 8 13 29.81 1009 9 14 0.00 0.00
8:54 pm 20:54 Clear 75 23.9 67 19.4 76 76 N 7 11 29.82 1010 10 16 0.00 0.00
9:54 pm 21:54 Clear 74 23.3 66 18.9 76 76 NNE 6 9 29.83 1010 10 16 0.00 0.00
10:54 pm 22:54 Clear 74 23.3 67 19.4 79 79 N 6 9 29.83 1010 10 16 0.00 0.00
11:54 pm 23:54 Partly Cloudy 76 24.4 65 18.3 69 69 NE 3 6 29.85 1011 10 16 0.00 0.00

Powered by AerisWeather